[[{"header":{"parameterUnit":"m.s-1","parameterCategory":1,"la1":30.2991,"la2":30.254,"lo1":-89.0895,"lo2":-89.0444,"dy":0.0017,"dx":0.0017,"nx":28,"ny":28,"refTime":"2024-05-29T21:00:00:Z","depth":0,"parameterNumber":2,"parameterNumberName":"U-component_of_WINDS"},"data":[0,0,0,0,0,0,0,0,0,0,0,0,0,0,0,0,0,0,0,0,0,0,0,0,0,0,0,0,0,0,0,0,0,0,0,0,0,0,0,0,0,0,0,0,0,0,0,0,0,0,0,0,0,0,0,0,0,0,-3.0987,-3.0987,0,-3.0945,-3.0945,-3.0944,-3.0854,-3.0852,-3.085,-3.0849,-3.0806,-3.0806,-3.0807,0,0,0,0,0,0,0,0,0,0,0,0,0,-3.0992,-3.0992,-3.0987,-3.0987,-3.0986,-3.0945,-3.0945,-3.0944,-3.0854,-3.0852,-3.085,-3.0848,-3.0806,-3.0806,-3.0807,0,0,0,0,0,0,0,0,0,0,0,0,0,-3.0974,-3.0993,-3.0987,-3.0937,-3.0932,-3.0945,-3.0945,-3.0944,-3.0855,-3.0852,-3.0849,-3.0847,-3.0805,-3.0806,-3.0807,-3.0867,0,0,-3.0809,-3.081,0,0,0,0,0,0,0,0,-3.0975,-3.0974,-3.0945,-3.094,-3.0934,-3.0902,-3.093,-3.0918,-3.0856,-3.0884,-3.0849,-3.0845,-3.084,-3.0838,-3.0836,-3.0865,-3.0863,-3.081,-3.081,-3.081,-3.0811,0,0,0,0,0,0,0,-3.0977,-3.0975,-3.0971,-3.0944,-3.0938,-3.0917,-3.0911,-3.0928,-3.0878,-3.0881,-3.0875,-3.0871,-3.0837,-3.0835,-3.0834,-3.0862,-3.081,-3.081,-3.0811,-3.0811,-3.094,-3.0943,0,0,0,0,0,0,-3.0985,-3.0977,-3.0972,-3.0969,-3.0949,-3.0919,-3.0912,-3.0915,-3.0877,-3.0869,-3.0873,-3.0867,-3.0835,-3.0833,-3.0832,-3.09,-3.081,-3.0811,-3.0812,-3.0937,-3.0941,-3.0944,0,0,0,0,0,0,-3.0985,-3.0985,-3.0974,-3.0971,-3.0968,-3.0921,-3.0925,-3.0916,-3.0914,-3.0871,-3.0862,-3.0881,-3.0833,-3.0831,-3.0859,-3.0897,-3.0812,-3.0812,-3.0934,-3.0938,-3.0942,-3.1036,0,0,0,0,0,0,-3.0986,-3.0986,-3.1008,-3.0972,-3.0969,-3.1001,-3.0928,-3.0917,-3.0916,-3.0907,-3.0876,-3.0868,-3.0831,-3.0859,-3.086,-3.0897,-3.0813,-3.093,-3.0936,-3.0941,-3.1029,-3.1043,-3.1055,0,0,0,0,0,-3.0986,-3.1035,-3.1009,-3.1009,-3.0994,-3.1003,-3.1001,-3.0957,-3.0919,-3.0941,-3.0914,-3.0869,-3.0894,-3.0862,-3.0863,-3.0901,-3.0927,-3.0934,-3.0941,-3.1024,-3.1041,-3.1055,0,0,0,0,0,0,-3.1075,-3.103,-3.1,-3.1039,-3.1026,-3.0988,-3.1013,-3.0976,-3.0973,-3.0964,-3.091,-3.0904,-3.094,-3.0923,-3.0889,-3.0958,-3.0904,-3.0911,-3.0966,-3.0982,-3.0995,-3.0997,-3.0814,0,0,0,0,0,-3.11,-3.111,-3.107,-3.1108,-3.1103,-3.106,-3.1062,-3.103,-3.1013,-3.1007,-3.0982,-3.0969,-3.0973,-3.0977,-3.0979,-3.1028,-3.102,-3.1055,-3.1068,-3.1078,-3.1084,-3.111,-3.1125,-3.0966,-3.0965,-3.0965,0,0,-3.1149,-3.1126,-3.1135,-3.1125,-3.1111,-3.1124,-3.1055,-3.1071,-3.108,-3.1009,-3.1034,-3.1016,-3.0998,-3.1037,-3.1053,-3.1024,-3.1127,-3.1087,-3.1096,-3.1095,-3.1118,-3.1133,-3.1147,-3.097,-3.0969,-3.0968,0,0,-3.1246,-3.1229,-3.1259,-3.1248,-3.1227,-3.1199,-3.1207,-3.1175,-3.1161,-3.1185,-3.1133,-3.1144,-3.1153,-3.1142,-3.1137,-3.1235,-3.1193,-3.1237,-3.1303,-3.1329,-3.1341,-3.1352,-3.1386,-3.1399,-3.1244,-3.1244,-3.1244,0,-3.1309,-3.1326,-3.128,-3.1299,-3.1297,-3.1236,-3.1266,-3.1257,-3.1239,-3.1239,-3.1208,-3.1219,-3.1203,-3.1239,-3.1263,-3.1262,-3.1269,-3.1239,-3.1343,-3.1353,-3.1363,-3.1395,-3.1408,-3.1249,-3.1249,-3.1248,-3.1248,0,-3.1405,-3.1418,-3.1445,-3.143,-3.1431,-3.1456,-3.1415,-3.1422,-3.1391,-3.1366,-3.1393,-3.1372,-3.1368,-3.1375,-3.1345,-3.1408,-3.1391,-3.1353,-3.1296,-3.1384,-3.1413,-3.1425,-3.1257,-3.1255,-3.1254,-3.1252,0,0,-3.1552,-3.1514,-3.1524,-3.1517,-3.1493,-3.1502,-3.1526,-3.1523,-3.153,-3.1521,-3.154,-3.1551,-3.1516,-3.1511,-3.148,-3.1503,-3.1581,-3.1461,-3.146,-3.1483,-3.1649,-3.1677,-3.1692,-3.1555,-3.1557,-3.1559,-3.1651,0,-3.1641,-3.1678,-3.164,-3.1685,-3.1696,-3.164,-3.1661,-3.1649,-3.1628,-3.1635,-3.1612,-3.1621,-3.1574,-3.1571,-3.1592,-3.1567,-3.1613,-3.156,-3.1571,-3.1572,-3.1575,-3.1707,-3.1735,-3.1822,-3.1662,-3.1664,-3.1665,0,-3.1749,-3.1746,-3.1793,-3.1767,-3.177,-3.179,-3.1785,-3.1793,-3.1779,-3.1763,-3.176,-3.1722,-3.1745,-3.1693,-3.1723,-3.1688,-3.1691,-3.1681,-3.1683,-3.168,-3.1622,-3.1706,-3.1849,-3.1862,-3.1683,-3.1681,-3.168,0,-3.185,-3.1858,-3.1887,-3.1883,-3.1854,-3.1869,-3.1858,-3.1841,-3.1843,-3.1841,-3.1841,-3.1842,-3.1841,-3.1843,-3.1807,-3.1772,-3.1842,-3.1787,-3.1829,-3.183,-3.1843,-3.1842,-3.1987,-3.1849,-3.1849,-3.1849,-3.1848,0,-3.1952,-3.1983,-3.1932,-3.195,-3.1983,-3.194,-3.1974,-3.1957,-3.1944,-3.1958,-3.1911,-3.1925,-3.1878,-3.1888,-3.1861,-3.189,-3.1891,-3.1878,-3.187,-3.1881,-3.1883,-3.188,-3.1872,-3.1852,-3.1851,-3.1851,-3.185,0,-3.2069,-3.2036,-3.2064,-3.2036,-3.203,-3.2056,-3.2032,-3.2047,-3.2025,-3.2044,-3.2046,-3.201,-3.202,-3.1985,-3.1989,-3.1971,-3.2014,-3.1997,-3.2019,-3.2013,-3.2056,-3.2052,-3.2202,-3.2219,-3.2073,-3.2074,-3.2075,0,-3.2135,-3.2157,-3.2132,-3.2138,-3.213,-3.2141,-3.2143,-3.2103,-3.2107,-3.2095,-3.2112,-3.2118,-3.212,-3.2139,-3.2114,-3.2117,-3.2098,-3.2151,-3.2098,-3.2109,-3.2097,-3.2096,-3.2098,-3.2161,-3.2163,-3.2164,-3.2165,0,-3.2255,-3.2239,-3.2243,-3.2244,-3.2248,-3.2246,-3.2241,-3.225,-3.2207,-3.2214,-3.2224,-3.2226,-3.2231,-3.2237,-3.2236,-3.2225,-3.2188,-3.2183,-3.2193,-3.2203,-3.2214,-3.2207,-3.2046,-3.2179,-3.2177,-3.2176,-3.2176,-3.2175,-3.2347,-3.2365,-3.235,-3.2358,-3.2351,-3.2348,-3.2362,-3.2342,-3.2349,-3.235,-3.2327,-3.2341,-3.233,-3.2324,-3.2317,-3.2329,-3.2304,-3.2318,-3.2321,-3.2325,-3.2332,-3.2215,-3.2329,-3.2328,-3.2328,-3.2327,-3.2327,0,-3.2463,-3.2452,-3.246,-3.2455,-3.2462,-3.2429,-3.2423,-3.2431,-3.2444,-3.2436,-3.244,-3.2453,-3.246,-3.2437,-3.2441,-3.2455,-3.2438,-3.2457,-3.2454,-3.2452,-3.2354,-3.2345,-3.247,-3.247,-3.247,-3.247,-3.247,-3.247,-3.2524,-3.2553,-3.2536,-3.2561,-3.2549,-3.2563,-3.2563,-3.2561,-3.2555,-3.257,-3.2576,-3.2562,-3.2548,-3.2552,-3.2557,-3.2551,-3.2554,-3.2578,-3.2566,-3.2473,-3.2459,-3.2446,-3.2437,-3.258,-3.258,-3.2663,-3.2663,-3.2664]},{"header":{"parameterUnit":"m.s-1","parameterCategory":1,"la1":30.2991,"la2":30.254,"lo1":-89.0895,"lo2":-89.0444,"dy":0.0017,"dx":0.0017,"nx":28,"ny":28,"refTime":"2024-05-29T21:00:00:Z","depth":0,"parameterNumber":3,"parameterNumberName":"V-component_of_WINDS"},"data":[0,0,0,0,0,0,0,0,0,0,0,0,0,0,0,0,0,0,0,0,0,0,0,0,0,0,0,0,0,0,0,0,0,0,0,0,0,0,0,0,0,0,0,0,0,0,0,0,0,0,0,0,0,0,0,0,0,0,3.0935,3.0935,0,3.0929,3.0929,3.0929,3.0975,3.0976,3.0978,3.0979,3.0965,3.0964,3.0962,0,0,0,0,0,0,0,0,0,0,0,0,0,3.098,3.0979,3.0935,3.0935,3.0935,3.0929,3.0929,3.0929,3.0975,3.0976,3.0978,3.0979,3.0966,3.0964,3.0962,0,0,0,0,0,0,0,0,0,0,0,0,0,3.0966,3.0979,3.0935,3.0957,3.0959,3.0929,3.0929,3.0929,3.0974,3.0976,3.0978,3.098,3.0966,3.0964,3.0962,3.0908,0,0,3.0954,3.0953,0,0,0,0,0,0,0,0,3.0967,3.0964,3.0954,3.0955,3.0958,3.0955,3.094,3.0921,3.0974,3.0968,3.0979,3.0981,3.096,3.0958,3.0952,3.0907,3.0906,3.0954,3.0953,3.0952,3.0951,0,0,0,0,0,0,0,3.0968,3.0965,3.0932,3.0954,3.0956,3.0966,3.0966,3.0937,3.0953,3.0969,3.0972,3.0971,3.0961,3.0954,3.0952,3.0906,3.0954,3.0952,3.0951,3.095,3.0818,3.0816,0,0,0,0,0,0,3.0967,3.0965,3.0932,3.0932,3.0967,3.0963,3.0963,3.0954,3.0953,3.0955,3.097,3.0974,3.0958,3.0955,3.0952,3.089,3.0952,3.095,3.0948,3.082,3.0818,3.0816,0,0,0,0,0,0,3.0967,3.0963,3.0933,3.095,3.0947,3.096,3.0949,3.0952,3.0946,3.0954,3.0956,3.096,3.0959,3.0955,3.0919,3.089,3.0948,3.0946,3.0823,3.082,3.0817,3.0763,0,0,0,0,0,0,3.0968,3.0963,3.0944,3.0949,3.0946,3.0901,3.0947,3.0951,3.0943,3.0948,3.0946,3.0947,3.096,3.0923,3.0917,3.0887,3.0944,3.0825,3.0821,3.0818,3.0768,3.0759,3.0751,0,0,0,0,0,3.097,3.0927,3.0942,3.0938,3.0922,3.0899,3.0897,3.0915,3.094,3.092,3.0926,3.0947,3.0895,3.0919,3.0913,3.0882,3.0827,3.0822,3.0818,3.0772,3.0761,3.0751,0,0,0,0,0,0,3.0914,3.0928,3.0945,3.0903,3.09,3.0907,3.0882,3.0903,3.089,3.0895,3.0916,3.0915,3.0876,3.0875,3.0902,3.0831,3.0865,3.0859,3.0832,3.0821,3.0813,3.0813,3.0943,0,0,0,0,0,3.0898,3.088,3.0893,3.0854,3.0852,3.0868,3.0858,3.0873,3.087,3.0868,3.0871,3.0865,3.0847,3.0835,3.0819,3.0769,3.0769,3.0745,3.0737,3.073,3.0724,3.0699,3.0688,3.08,3.08,3.08,0,0,3.0862,3.0867,3.0854,3.0843,3.0842,3.0823,3.0866,3.0842,3.0828,3.0863,3.083,3.0833,3.0827,3.0785,3.0766,3.0783,3.0694,3.0724,3.0719,3.0716,3.0693,3.0682,3.0672,3.0797,3.0798,3.0798,0,0,3.0786,3.0789,3.0758,3.0758,3.0758,3.0769,3.0762,3.0767,3.0771,3.0739,3.0766,3.0748,3.0716,3.0712,3.0706,3.0633,3.0653,3.0627,3.0583,3.0558,3.0549,3.0541,3.0515,3.0505,3.0622,3.0621,3.0621,0,3.0741,3.0714,3.0739,3.0715,3.0709,3.0745,3.0713,3.0711,3.0704,3.0698,3.0719,3.0683,3.0681,3.0639,3.0622,3.0616,3.0607,3.0626,3.0549,3.0541,3.0534,3.051,3.05,3.0618,3.0619,3.0619,3.0619,0,3.0659,3.064,3.0614,3.0611,3.0603,3.0574,3.0594,3.0582,3.0598,3.0607,3.0574,3.0575,3.0561,3.0552,3.0566,3.0512,3.0523,3.0546,3.058,3.052,3.0497,3.0488,3.0614,3.0615,3.0616,3.0617,0,0,3.0544,3.0558,3.0548,3.0548,3.0553,3.0538,3.0512,3.0501,3.049,3.0485,3.0463,3.0438,3.0461,3.0453,3.0468,3.0446,3.0389,3.0472,3.0472,3.0456,3.0329,3.0311,3.0299,3.0403,3.0402,3.04,3.0329,0,3.0471,3.0429,3.0452,3.0406,3.0389,3.0425,3.0402,3.0401,3.041,3.0395,3.0404,3.0386,3.0417,3.0413,3.0393,3.04,3.0363,3.0406,3.0381,3.038,3.038,3.0287,3.0267,3.02,3.0321,3.0319,3.0318,0,3.0379,3.0374,3.0327,3.0337,3.0331,3.031,3.0303,3.029,3.029,3.0298,3.0292,3.0312,3.0286,3.0323,3.0287,3.0315,3.0307,3.0309,3.0307,3.0304,3.0344,3.028,3.0179,3.0169,3.0304,3.0305,3.0306,0,3.03,3.0281,3.0252,3.025,3.0261,3.0246,3.0249,3.0252,3.0245,3.0238,3.0234,3.0223,3.0217,3.0208,3.0224,3.025,3.0186,3.0224,3.019,3.019,3.0173,3.0173,3.0068,3.017,3.017,3.0171,3.0171,0,3.0214,3.0184,3.0217,3.0198,3.0166,3.0192,3.0159,3.0166,3.0169,3.0151,3.0181,3.0163,3.0188,3.0172,3.0185,3.0154,3.0151,3.0155,3.0158,3.0151,3.0151,3.0145,3.0149,3.0168,3.0169,3.0169,3.017,0,3.0119,3.014,3.011,3.0124,3.0127,3.0103,3.0114,3.0097,3.0109,3.0087,3.0083,3.0101,3.0085,3.0102,3.0085,3.0094,3.0052,3.0063,3.0052,3.0055,3.002,3.0023,2.9905,2.9891,3.0004,3.0003,3.0002,0,3.0062,3.0041,3.0054,3.0046,3.0049,3.0035,3.0029,3.0055,3.0047,3.0048,3.003,3.0017,3.0008,2.9981,2.9991,2.9979,2.9989,2.9949,2.9987,2.9982,2.9988,2.9988,2.9986,2.994,2.9939,2.9938,2.9937,0,2.9959,2.9972,2.9963,2.9958,2.9951,2.9948,2.9947,2.9938,2.9965,2.9955,2.994,2.9934,2.992,2.9906,2.9898,2.99,2.9922,2.9926,2.9917,2.9909,2.9903,2.9905,3.003,2.9927,2.9928,2.9929,2.993,2.993,2.9881,2.9864,2.9872,2.9861,2.9864,2.9863,2.9849,2.9861,2.985,2.9842,2.9858,2.984,2.9842,2.9835,2.9835,2.982,2.9837,2.9824,2.9821,2.9817,2.9812,2.9908,2.9818,2.9819,2.9819,2.9819,2.982,0,2.9779,2.9787,2.9778,2.9777,2.9769,2.9795,2.9796,2.9786,2.9771,2.9773,2.9765,2.9749,2.9737,2.9748,2.9738,2.9724,2.9734,2.972,2.972,2.972,2.9797,2.9806,2.9712,2.9712,2.9712,2.9712,2.9712,2.9712,2.9725,2.9698,2.9712,2.9686,2.9694,2.9678,2.9677,2.9676,2.9678,2.966,2.9651,2.966,2.9665,2.9656,2.9646,2.965,2.9644,2.9626,2.9633,2.9704,2.9715,2.9725,2.9732,2.9625,2.9625,2.9558,2.9557,2.9556]}]]